NSZ3859 EGPH-EKBI

Flight info

Callsign NSZ3859
Flight time N/A
Altitude 39000
Route GRICE P600 ASNUD DCT ELSAN DCT VAXIT DCT GELBA
Aircraft A320/M-SDE3FGHIRWY/LB1

Departure

Time N/A
Airport Edinburgh Airport (EGPH)

Arrival

Time 2026-04-28 11:05
Airport Billund Airport (EKBI)
Time Latitude Longitude Altitude Speed Heading
2026-04-28 10:55 55.88305 8.03051 12170 ft 340 kts 109°
2026-04-28 10:55 55.87435 8.06780 11742 ft 337 kts 109°
2026-04-28 10:55 55.86515 8.10714 11271 ft 335 kts 110°
2026-04-28 10:55 55.85621 8.14533 10833 ft 332 kts 110°
2026-04-28 10:56 55.84737 8.18318 10390 ft 331 kts 109°
2026-04-28 10:56 55.83866 8.22054 10168 ft 322 kts 109°
2026-04-28 10:56 55.83019 8.25674 10021 ft 311 kts 109°
2026-04-28 10:56 55.82200 8.29159 9883 ft 301 kts 109°
2026-04-28 10:57 55.81405 8.32529 9722 ft 292 kts 109°
2026-04-28 10:57 55.80621 8.35853 9394 ft 290 kts 109°
2026-04-28 10:57 55.79844 8.39150 9072 ft 287 kts 109°
2026-04-28 10:57 55.79075 8.42414 8776 ft 285 kts 109°
2026-04-28 10:58 55.78302 8.45691 8446 ft 283 kts 109°
2026-04-28 10:58 55.77550 8.48869 8127 ft 281 kts 109°
2026-04-28 10:58 55.76791 8.52062 7836 ft 279 kts 109°
2026-04-28 10:58 55.76040 8.55228 7534 ft 276 kts 109°
2026-04-28 10:59 55.75295 8.58355 7229 ft 274 kts 109°
2026-04-28 10:59 55.74545 8.61492 6930 ft 272 kts 109°
2026-04-28 10:59 55.73805 8.64597 6209 ft 279 kts 109°
2026-04-28 10:59 55.73049 8.67771 5443 ft 280 kts 109°
2026-04-28 11:00 55.72619 8.71046 4991 ft 263 kts 91°
2026-04-28 11:00 55.72670 8.74225 4646 ft 249 kts 85°
2026-04-28 11:00 55.72778 8.77196 4321 ft 239 kts 85°
2026-04-28 11:00 55.72880 8.80112 3997 ft 229 kts 85°
2026-04-28 11:01 55.72975 8.82868 3691 ft 219 kts 85°
2026-04-28 11:01 55.73063 8.85501 3400 ft 210 kts 85°
2026-04-28 11:01 55.73149 8.88043 3125 ft 202 kts 85°
2026-04-28 11:01 55.73231 8.90495 2863 ft 196 kts 85°
2026-04-28 11:02 55.73310 8.92859 2602 ft 185 kts 85°
2026-04-28 11:02 55.73381 8.95026 2349 ft 164 kts 84°
2026-04-28 11:02 55.73442 8.96904 2124 ft 144 kts 83°
2026-04-28 11:02 55.73499 8.98623 1924 ft 136 kts 84°
2026-04-28 11:03 55.73554 9.00284 1744 ft 133 kts 83°
2026-04-28 11:03 55.73608 9.01917 1566 ft 133 kts 83°
2026-04-28 11:03 55.73660 9.03540 1391 ft 130 kts 83°
2026-04-28 11:03 55.73712 9.05151 1209 ft 131 kts 82°
2026-04-28 11:04 55.73764 9.06770 1023 ft 130 kts 82°
2026-04-28 11:04 55.73817 9.08400 850 ft 133 kts 85°
2026-04-28 11:04 55.73852 9.09505 714 ft 132 kts 84°
2026-04-28 11:04 55.73904 9.11136 532 ft 135 kts 84°
2026-04-28 11:05 55.73956 9.12774 348 ft 130 kts 83°
2026-04-28 11:05 55.74009 9.14340 219 ft 114 kts 87°
2026-04-28 11:05 55.74043 9.15444 216 ft 65 kts 87°
2026-04-28 11:05 55.74060 9.16017 216 ft 40 kts 86°
2026-04-28 11:06 55.74076 9.16479 216 ft 23 kts 87°
2026-04-28 11:06 55.74084 9.16771 222 ft 25 kts 86°
2026-04-28 11:06 55.74160 9.16914 216 ft 19 kts 355°
2026-04-28 11:06 55.74250 9.16837 218 ft 15 kts 280°
2026-04-28 11:07 55.74246 9.16641 216 ft 17 kts 266°
2026-04-28 11:07 55.74239 9.16415 216 ft 20 kts 266°
2026-04-28 11:07 55.74231 9.16156 216 ft 22 kts 267°
2026-04-28 11:07 55.74224 9.15907 216 ft 18 kts 266°
2026-04-28 11:08 55.74216 9.15676 220 ft 20 kts 267°
2026-04-28 11:08 55.74209 9.15409 216 ft 23 kts 267°
2026-04-28 11:08 55.74201 9.15154 216 ft 17 kts 266°
2026-04-28 11:08 55.74216 9.15003 219 ft 11 kts 324°
2026-04-28 11:09 55.74301 9.14990 216 ft 14 kts 358°
2026-04-28 11:09 55.74409 9.14980 223 ft 11 kts 357°
2026-04-28 11:09 55.74450 9.14940 216 ft 1 kts 297°
2026-04-28 11:09 55.74452 9.14926 216 ft 1 kts 284°
2026-04-28 11:10 55.74467 9.14890 219 ft 6 kts 332°
2026-04-28 11:10 55.74508 9.14883 216 ft 3 kts 358°
2026-04-28 11:10 55.74533 9.14881 220 ft 1 kts 356°
2026-04-28 11:10 55.74540 9.14880 220 ft 0 kts 356°